Home > Weather > Białystok > Past weeks

Flag for Poland Past Weather in Białystok, Poland — Yesterday and Last 2 Weeks

Now
69 °F

Overcast.


Feels Like: 69 °F
Forecast: 61 / 85 °F
Wind: 1 mph from Northwest

Location: Bialystok

Current Time: Jul 25, 2016 at 10:10:01 PM

Latest Report: Jul 25, 2016 at 9:00 PM


Visibility: 9 mi

Pressure: 30.03 "Hg

Humidity: 81%

Dew Point: 63 °F

Location of BiałystokLocation

Past Weather in Białystok — Graph

°F

Białystok Temperature Yesterday

Maximum temperature yesterday: 78 °F (at 3:00 PM)
Minimum temperature yesterday: 59 °F (at 3:00 AM)
Average temperature yesterday: 69 °F

High & Low Weather Summary for the Past Weeks

 TemperatureHumidityPressure
High85 °F (Jul 11, 5:00 PM)99% (Jul 13, 4:00 AM)30.19 "Hg (Jul 13, 4:00 AM)
Low52 °F (Jul 20, 5:00 AM)36% (Jul 20, 5:00 PM)29.62 "Hg (Jul 14, 8:00 PM)
Average64 °F81%29.96 "Hg
* Reported Jul 10 9:00 PM — Jul 25 9:00 PM, Białystok, Weather by CustomWeather, © 2016

Note: Actual official high and low records may vary slightly from our data, if they occured in-between our weather recording intervals... More about our weather records

Advertising

Białystok Weather History for the Previous 24 Hours

Scroll right to see more
 ConditionsComfort  
Time TempWeatherWind HumidityBarometerVisibility
9:00 PM
Mon, Jul 25
69 °FOvercast.1 mph81%30.03 "Hg9 mi
8:00 PM71 °FThunderstorms. Overcast.1 mph77%30.03 "Hg7 mi
7:00 PM76 °FThunderstorms. Overcast.2 mph56%30.03 "Hg9 mi
6:00 PM79 °FPartly sunny.2 mph61%30.00 "Hg7 mi
5:00 PM81 °FScattered clouds.1 mph55%29.99 "Hg9 mi
4:00 PM83 °FScattered clouds.1 mph44%30.00 "Hg9 mi
3:00 PM82 °FPartly sunny.1 mph50%30.01 "Hg9 mi
2:00 PM82 °FPartly sunny.1 mph45%30.03 "Hg10 mi
1:00 PM80 °FScattered clouds.2 mph49%30.03 "Hg10 mi
12:00 PM79 °FPartly sunny.2 mph57%30.05 "Hg7 mi
11:00 AM77 °FPartly sunny.2 mph65%30.06 "Hg7 mi
10:00 AM76 °FFog.1 mph70%30.07 "Hg6 mi
9:00 AM73 °FFog.1 mph76%30.08 "Hg6 mi
8:00 AM72 °FFog.1 mph84%30.08 "Hg6 mi
7:00 AM66 °FFog.1 mph97%30.08 "Hg4 mi
6:00 AM61 °FFog.1 mph98%30.09 "Hg3 mi
5:00 AM58 °FFog.No wind98%30.10 "Hg2 mi
4:00 AM59 °FFog.1 mph98%30.10 "Hg2 mi
3:00 AM59 °FFog.No wind98%30.10 "Hg3 mi
2:00 AM60 °FFog.1 mph97%30.10 "Hg3 mi
1:00 AM61 °FFog.1 mph97%30.10 "Hg4 mi
12:00 AM61 °FFog.1 mph95%30.10 "Hg4 mi
11:00 PM
Sun, Jul 24
62 °FFog.2 mph96%30.11 "Hg4 mi
10:00 PM63 °FFog.1 mph95%30.10 "Hg5 mi
Weather by CustomWeather, © 2016

See weather overviewHow to use our weather pages